EW7001 Weather Reports


Display with metric or nautical units.
time (UTC)temp
F
wind
direction
speed
MPH
gust
MPH
rain 1hr
in
rain 24hr
in
rain mn
in
humidity
%
barometer
mb
20260503030018 54 67 1.0 4.0 0.00 1.00 0.72 46 1010.4
20260503024515 55 49 2.0 6.0 0.00 1.00 0.72 45 1010.2
20260503023012 57 14 3.0 8.0 0.01 1.00 0.72 43 1010.0
20260503021505 58 23 4.0 8.0 0.06 1.00 0.72 41 1009.9
20260503020002 59 20 4.0 8.0 0.11 1.00 0.72 40 1009.9
20260503014558 60 25 6.0 11.0 0.11 1.00 0.72 38 1009.8
20260503013056 61 34 6.0 13.0 0.16 0.99 0.71 36 1009.7
20260503011605 63 14 8.0 16.0 0.15 0.94 0.66 34 1009.6
20260503010044 64 25 5.0 14.0 0.12 0.89 0.61 26 1009.5
20260503004540 65 331 7.0 14.0 0.13 0.89 0.61 26 1009.6
20260503003037 67 18 5.0 11.0 0.08 0.83 0.55 26 1009.6
20260503001536 68 331 5.0 13.0 0.05 0.79 0.51 24 1009.6
20260503000043 67 344 4.0 14.0 0.19 0.77 0.49 24 1009.7
20260502234532 68 349 5.0 14.0 0.20 0.77 0.48 23 1009.8
20260502233031 69 326 7.0 15.0 0.20 0.76 0.47 21 1009.8
20260502231533 69 349 9.0 17.0 0.22 0.74 0.45 21 1009.7
20260502230025 68 350 7.0 17.0 0.08 0.59 0.30 22 1009.8
20260502224521 70 327 9.0 14.0 0.09 0.63 0.28 21 1009.7
20260502223027 71 20 7.0 16.0 0.13 0.61 0.26 21 1009.8
20260502221518 70 15 7.0 15.0 0.11 0.57 0.23 21 1010.0
20260502220011 71 338 8.0 18.0 0.14 0.56 0.22 20 1010.1
20260502214508 70 353 9.0 19.0 0.11 0.67 0.19 20 1010.2
20260502213006 70 290 7.0 15.0 0.06 0.61 0.13 20 1010.5
20260502211504 71 353 10.0 17.0 0.04 0.59 0.11 19 1010.7
20260502210125 70 264 8.0 14.0 0.01 0.56 0.08 20 1010.9
20260502204557 71 319 8.0 17.0 0.02 0.75 0.08 20 1011.0
20260502203052 71 317 6.0 13.0 0.02 0.74 0.07 20 1011.0
20260502201551 70 6 7.0 16.0 0.03 0.74 0.07 22 1011.2
20260502200057 70 262 7.0 15.0 0.07 0.74 0.07 20 1011.2
20260502194541 71 339 8.0 15.0 0.06 0.99 0.06 21 1011.3
20260502193039 70 311 9.0 22.0 0.05 0.98 0.05 20 1011.6
20260502191531 69 6 6.0 15.0 0.04 0.97 0.04 19 1011.6
20260502190035 69 325 6.0 16.0 0.00 0.93 0.00 19 1011.8
20260502184522 69 319 4.0 14.0 0.00 1.20 0.00 18 1011.9
20260502183017 69 323 6.0 15.0 0.00 1.20 0.00 18 1012.1
20260502181511 68 302 7.0 18.0 0.00 1.20 0.00 18 1012.3
20260502163046 65 240 7.0 16.0 0.00 1.37 1.31 21 1013.2
20260502161534 65 278 5.0 11.0 0.00 1.37 1.31 21 1013.3
20260502151548 62 237 5.0 12.0 0.00 1.38 1.31 26 1013.5
20260502123003 37 228 7.0 11.0 0.01 1.17 1.10 69 1014.2
20260502121502 35 207 7.0 10.0 0.01 1.17 1.10 72 1014.2
20260502120104 35 196 8.0 12.0 0.01 1.17 1.10 72 1014.2
20260502114530 36 201 9.0 13.0 0.00 1.15 1.09 69 1014.4
20260502113035 36 196 7.0 11.0 0.01 1.15 1.09 71 1014.5
20260502111525 36 188 7.0 10.0 0.01 1.15 1.09 70 1014.7
20260502110033 36 207 7.0 10.0 0.01 1.15 1.09 72 1014.8
20260502104520 35 196 7.0 10.0 0.01 1.15 1.09 73 1014.9
20260502103018 36 209 6.0 9.0 0.00 1.14 1.08 71 1015.0
20260502101514 37 193 7.0 11.0 0.00 1.14 1.08 69 1015.1
20260502091509 38 184 7.0 10.0 0.02 1.14 1.08 67 1015.3
20260502070111 41 187 8.0 12.0 0.01 1.11 1.04 57 1016.8
20260502064618 41 178 8.0 12.0 0.00 1.10 1.03 57 1016.9
20260502063057 42 186 9.0 14.0 0.00 1.10 1.03 55 1016.8
20260502061553 42 193 5.0 10.0 0.00 1.10 1.03 57 1016.9
20260502060053 40 191 3.0 7.0 0.00 1.10 1.03 61 1017.1
20260502054556 38 178 2.0 4.0 0.00 1.10 1.03 67 1017.2
20260502053052 38 89 0.0 5.0 0.00 1.10 1.03 65 1017.1
20260502051548 37 98 2.0 4.0 0.00 1.10 1.03 67 1017.1
20260502050047 36 1 0.0 2.0 0.00 1.10 1.03 70 1017.2
20260502044547 35 46 0.0 2.0 0.00 1.10 1.03 71 1017.2
20260502043047 34 102 0.0 2.0 0.00 1.10 1.03 72 1017.1
20260502041553 34 63 1.0 2.0 0.00 1.10 1.03 70 1017.2
20260502040038 35 117 0.0 2.0 0.00 1.10 1.03 68 1017.0
20260502034534 36 81 1.0 2.0 0.00 1.10 1.03 66 1017.1
20260502033031 37 89 0.0 2.0 0.00 1.10 1.03 62 1017.0
20260502031523 39 124 0.0 2.0 0.00 1.10 1.03 57 1016.9